| time (UTC) | temp F | wind direction | speed knots | gust knots | rain 1hr in | rain 24hr in | rain mn in | humidity % | barometer mb |
| 20260901173225 | 98 | 227 | 4.3 | 7.0 | 0.00 | 0.00 | 0.00 | 31 | 1017.7 |
| 20260901172722 | 98 | 215 | 2.6 | 12.2 | 0.00 | 0.00 | 0.00 | 31 | 1017.7 |
| 20260901172220 | 98 | 219 | 3.5 | 6.1 | 0.00 | 0.00 | 0.00 | 30 | 1017.9 |
| 20260901171718 | 97 | 306 | 1.7 | 7.8 | 0.00 | 0.00 | 0.00 | 32 | 1017.8 |
| 20260901171218 | 98 | 223 | 4.3 | 8.7 | 0.00 | 0.00 | 0.00 | 32 | 1018.0 |
| 20260901170717 | 98 | 219 | 3.5 | 5.2 | 0.00 | 0.00 | 0.00 | 32 | 1018.0 |
| 20260901170212 | 97 | 199 | 1.7 | 7.8 | 0.00 | 0.00 | 0.00 | 33 | 1018.2 |
| 20260901165711 | 97 | 278 | 1.7 | 5.2 | 0.00 | 0.00 | 0.00 | 33 | 1018.3 |
| 20260901165206 | 96 | 237 | 3.5 | 7.0 | 0.00 | 0.00 | 0.00 | 33 | 1018.1 |
| 20260901164702 | 96 | 228 | 6.1 | 7.0 | 0.00 | 0.00 | 0.00 | 33 | 1018.1 |
| 20260901164157 | 96 | 230 | 4.3 | 7.0 | 0.00 | 0.00 | 0.00 | 33 | 1018.3 |
| 20260901163653 | 96 | 215 | 4.3 | 7.0 | 0.00 | 0.00 | 0.00 | 34 | 1018.5 |
| 20260901163151 | 95 | 241 | 7.0 | 8.7 | 0.00 | 0.00 | 0.00 | 35 | 1018.2 |
| 20260901162647 | 95 | 233 | 4.3 | 8.7 | 0.00 | 0.00 | 0.00 | 34 | 1018.3 |
| 20260901162146 | 94 | 226 | 1.7 | 6.1 | 0.00 | 0.00 | 0.00 | 34 | 1018.4 |
| 20260901161645 | 94 | 194 | 4.3 | 9.6 | 0.00 | 0.00 | 0.00 | 35 | 1018.5 |
| 20260901161145 | 94 | 136 | 2.6 | 7.8 | 0.00 | 0.00 | 0.00 | 35 | 1018.5 |
| 20260901160642 | 94 | 234 | 5.2 | 5.2 | 0.00 | 0.00 | 0.00 | 35 | 1018.4 |
| 20260901160137 | 94 | 229 | 3.5 | 7.0 | 0.00 | 0.00 | 0.00 | 35 | 1018.4 |
| 20260901155636 | 93 | 259 | 1.7 | 7.0 | 0.00 | 0.00 | 0.00 | 36 | 1018.3 |
| 20260901155131 | 93 | 230 | 5.2 | 6.1 | 0.00 | 0.00 | 0.00 | 36 | 1018.3 |
| 20260901154626 | 92 | 227 | 1.7 | 6.1 | 0.00 | 0.00 | 0.00 | 37 | 1018.0 |
| 20260901154121 | 91 | 228 | 4.3 | 6.1 | 0.00 | 0.00 | 0.00 | 37 | 1018.3 |
| 20260901153616 | 91 | 251 | 5.2 | 7.8 | 0.00 | 0.00 | 0.00 | 38 | 1018.3 |
| 20260901153115 | 91 | 206 | 7.8 | 8.7 | 0.00 | 0.00 | 0.00 | 38 | 1018.3 |
| 20260901152610 | 91 | 272 | 2.6 | 4.3 | 0.00 | 0.00 | 0.00 | 38 | 1018.4 |
| 20260901152109 | 91 | 245 | 1.7 | 6.1 | 0.00 | 0.00 | 0.00 | 38 | 1018.3 |
| 20260901151605 | 91 | 187 | 3.5 | 5.2 | 0.00 | 0.00 | 0.00 | 38 | 1018.4 |
| 20260901151104 | 90 | 277 | 1.7 | 4.3 | 0.00 | 0.00 | 0.00 | 39 | 1018.2 |
| 20260901150603 | 90 | 233 | 7.8 | 8.7 | 0.00 | 0.00 | 0.00 | 39 | 1018.5 |
| 20260901145555 | 89 | 190 | 3.5 | 6.1 | 0.00 | 0.00 | 0.00 | 40 | 1018.2 |
| 20260901145054 | 88 | 307 | 1.7 | 7.0 | 0.00 | 0.00 | 0.00 | 40 | 1018.5 |
| 20260901144550 | 88 | 227 | 1.7 | 7.8 | 0.00 | 0.00 | 0.00 | 42 | 1018.4 |
| 20260901144044 | 88 | 271 | 2.6 | 4.3 | 0.00 | 0.00 | 0.00 | 41 | 1018.3 |
| 20260901143541 | 87 | 228 | 2.6 | 4.3 | 0.00 | 0.00 | 0.00 | 42 | 1018.3 |
| 20260901143037 | 85 | 191 | 0.9 | 4.3 | 0.00 | 0.00 | 0.00 | 45 | 1018.7 |
| 20260901142537 | 84 | 255 | 1.7 | 4.3 | 0.00 | 0.00 | 0.00 | 46 | 1018.6 |
| 20260901142032 | 83 | 273 | 0.0 | 4.3 | 0.00 | 0.00 | 0.00 | 47 | 1018.6 |
| 20260901141532 | 83 | 211 | 2.6 | 3.5 | 0.00 | 0.00 | 0.00 | 47 | 1018.5 |
| 20260901141027 | 82 | 196 | 1.7 | 3.5 | 0.00 | 0.00 | 0.00 | 48 | 1018.7 |
| 20260901140526 | 82 | 220 | 2.6 | 2.6 | 0.00 | 0.00 | 0.00 | 48 | 1018.5 |
| 20260901140021 | 82 | 209 | 2.6 | 5.2 | 0.00 | 0.00 | 0.00 | 48 | 1018.6 |
| 20260901135519 | 82 | 17 | 1.7 | 2.6 | 0.00 | 0.00 | 0.00 | 49 | 1018.5 |
| 20260901135015 | 81 | 168 | 0.9 | 5.2 | 0.00 | 0.00 | 0.00 | 49 | 1018.7 |
| 20260901134511 | 80 | 222 | 1.7 | 1.7 | 0.00 | 0.00 | 0.00 | 50 | 1018.7 |
| 20260901134006 | 80 | 255 | 0.0 | 4.3 | 0.00 | 0.00 | 0.00 | 52 | 1018.7 |
| 20260901133504 | 78 | 209 | 2.6 | 3.5 | 0.00 | 0.00 | 0.00 | 53 | 1018.8 |
| 20260901133004 | 78 | 128 | 0.0 | 2.6 | 0.00 | 0.00 | 0.00 | 53 | 1018.8 |
| 20260901132503 | 77 | 1 | 0.0 | 3.5 | 0.00 | 0.00 | 0.00 | 54 | 1018.6 |
| 20260901132003 | 77 | 220 | 0.9 | 2.6 | 0.00 | 0.00 | 0.00 | 55 | 1018.7 |
| 20260901131457 | 76 | 343 | 0.0 | 1.7 | 0.00 | 0.00 | 0.00 | 56 | 1018.7 |
| 20260901130953 | 76 | 232 | 0.0 | 2.6 | 0.00 | 0.00 | 0.00 | 57 | 1018.7 |
| 20260901130453 | 75 | 269 | 0.0 | 1.7 | 0.00 | 0.00 | 0.00 | 59 | 1018.6 |
| 20260901125950 | 74 | 50 | 0.0 | 0.9 | 0.00 | 0.00 | 0.00 | 60 | 1018.6 |
| 20260901125445 | 73 | 259 | 0.9 | 1.7 | 0.00 | 0.00 | 0.00 | 60 | 1018.5 |
| 20260901124945 | 73 | 0 | 0.0 | 1.7 | 0.00 | 0.00 | 0.00 | 61 | 1018.6 |
| 20260901124440 | 73 | 224 | 0.0 | 0.9 | 0.00 | 0.00 | 0.00 | 61 | 1018.5 |
| 20260901123935 | 72 | 290 | 0.0 | 1.7 | 0.00 | 0.00 | 0.00 | 61 | 1018.6 |
| 20260901123430 | 72 | 333 | 0.9 | 0.9 | 0.00 | 0.00 | 0.00 | 62 | 1018.3 |
| 20260901122928 | 72 | 6 | 0.0 | 1.7 | 0.00 | 0.00 | 0.00 | 62 | 1018.2 |
| 20260901122428 | 72 | 265 | 0.0 | 0.9 | 0.00 | 0.00 | 0.00 | 62 | 1018.5 |
| 20260901121927 | 72 | 343 | 0.0 | 0.9 | 0.00 | 0.00 | 0.00 | 62 | 1018.1 |
| 20260901121422 | 71 | 269 | 0.0 | 1.7 | 0.00 | 0.00 | 0.00 | 62 | 1018.2 |
| 20260901120917 | 71 | 303 | 1.7 | 1.7 | 0.00 | 0.00 | 0.00 | 62 | 1018.1 |
| 20260901120417 | 71 | 322 | 0.0 | 0.9 | 0.00 | 0.00 | 0.00 | 62 | 1018.0 |
| 20260901115913 | 71 | 356 | 0.9 | 0.9 | 0.00 | 0.00 | 0.00 | 62 | 1018.0 |
| 20260901115412 | 72 | 354 | 0.0 | 0.0 | 0.00 | 0.00 | 0.00 | 61 | 1018.1 |
| 20260901114910 | 72 | 339 | 0.0 | 0.9 | 0.00 | 0.00 | 0.00 | 61 | 1017.9 |
| 20260901114406 | 72 | 15 | 0.0 | 0.9 | 0.00 | 0.00 | 0.00 | 61 | 1017.8 |
| 20260901113903 | 72 | 0 | 0.0 | 0.0 | 0.00 | 0.00 | 0.00 | 60 | 1018.0 |
| 20260901113403 | 72 | 24 | 0.0 | 0.9 | 0.00 | 0.00 | 0.00 | 60 | 1017.9 |
| 20260901112858 | 72 | 269 | 0.0 | 0.9 | 0.00 | 0.00 | 0.00 | 60 | 1017.9 |
| 20260901112353 | 73 | 269 | 0.0 | 0.9 | 0.00 | 0.00 | 0.00 | 60 | 1017.9 |
| 20260901111848 | 73 | 309 | 0.0 | 1.7 | 0.00 | 0.00 | 0.00 | 60 | 1017.9 |
| 20260901111346 | 73 | 296 | 0.0 | 0.9 | 0.00 | 0.00 | 0.00 | 59 | 1017.8 |
| 20260901110845 | 73 | 297 | 0.0 | 1.7 | 0.00 | 0.00 | 0.00 | 58 | 1017.8 |
| 20260901110341 | 73 | 297 | 0.0 | 1.7 | 0.00 | 0.00 | 0.00 | 59 | 1018.0 |
| 20260901105837 | 73 | 269 | 0.0 | 1.7 | 0.00 | 0.00 | 0.00 | 58 | 1017.9 |
| 20260901105332 | 74 | 22 | 0.0 | 0.0 | 0.00 | 0.00 | 0.00 | 58 | 1018.0 |
| 20260901104828 | 74 | 218 | 0.0 | 0.9 | 0.00 | 0.00 | 0.00 | 57 | 1018.0 |
| 20260901104323 | 74 | 288 | 0.9 | 0.9 | 0.00 | 0.00 | 0.00 | 57 | 1017.8 |
| 20260901103819 | 74 | 216 | 1.7 | 1.7 | 0.00 | 0.00 | 0.00 | 57 | 1017.7 |
| 20260901103318 | 74 | 297 | 0.0 | 2.6 | 0.00 | 0.00 | 0.00 | 57 | 1017.7 |
| 20260901102813 | 74 | 249 | 0.0 | 1.7 | 0.00 | 0.00 | 0.00 | 56 | 1017.7 |
| 20260901102308 | 74 | 212 | 0.0 | 1.7 | 0.00 | 0.00 | 0.00 | 56 | 1017.9 |
| 20260901101804 | 74 | 278 | 0.0 | 0.9 | 0.00 | 0.00 | 0.00 | 56 | 1017.8 |
| 20260901101303 | 75 | 211 | 0.0 | 1.7 | 0.00 | 0.00 | 0.00 | 56 | 1017.6 |
| 20260901100803 | 75 | 249 | 0.9 | 1.7 | 0.00 | 0.00 | 0.00 | 55 | 1017.6 |
| 20260901100257 | 75 | 0 | 0.0 | 1.7 | 0.00 | 0.00 | 0.00 | 54 | 1017.5 |
| 20260901095756 | 75 | 315 | 0.0 | 1.7 | 0.00 | 0.00 | 0.00 | 54 | 1017.7 |
| 20260901095254 | 76 | 243 | 1.7 | 2.6 | 0.00 | 0.00 | 0.00 | 54 | 1017.5 |
| 20260901094748 | 76 | 32 | 0.0 | 1.7 | 0.00 | 0.00 | 0.00 | 54 | 1017.4 |
| 20260901094243 | 76 | 245 | 0.0 | 1.7 | 0.00 | 0.00 | 0.00 | 54 | 1017.5 |
| 20260901093738 | 76 | 228 | 1.7 | 1.7 | 0.00 | 0.00 | 0.00 | 53 | 1017.5 |
| 20260901093237 | 76 | 257 | 1.7 | 1.7 | 0.00 | 0.00 | 0.00 | 53 | 1017.4 |
| 20260901092734 | 76 | 231 | 0.9 | 1.7 | 0.00 | 0.00 | 0.00 | 53 | 1017.2 |
| 20260901092229 | 76 | 271 | 1.7 | 1.7 | 0.00 | 0.00 | 0.00 | 52 | 1017.3 |
| 20260901091725 | 77 | 208 | 0.0 | 1.7 | 0.00 | 0.00 | 0.00 | 52 | 1017.5 |
| 20260901091220 | 77 | 244 | 1.7 | 1.7 | 0.00 | 0.00 | 0.00 | 52 | 1017.1 |
| 20260901090714 | 77 | 312 | 0.9 | 1.7 | 0.00 | 0.00 | 0.00 | 52 | 1017.2 |
| 20260901090210 | 77 | 312 | 0.9 | 2.6 | 0.00 | 0.00 | 0.00 | 52 | 1017.1 |
| 20260901085706 | 77 | 242 | 0.0 | 1.7 | 0.00 | 0.00 | 0.00 | 51 | 1016.8 |
| 20260901085201 | 77 | 230 | 1.7 | 2.6 | 0.00 | 0.00 | 0.00 | 52 | 1017.2 |
| 20260901084657 | 77 | 242 | 1.7 | 1.7 | 0.00 | 0.00 | 0.00 | 52 | 1017.2 |
| 20260901084153 | 77 | 321 | 0.0 | 1.7 | 0.00 | 0.00 | 0.00 | 52 | 1017.2 |
| 20260901083653 | 77 | 315 | 0.0 | 2.6 | 0.00 | 0.00 | 0.00 | 52 | 1016.5 |
| 20260901083152 | 77 | 217 | 2.6 | 2.6 | 0.00 | 0.00 | 0.00 | 52 | 1017.0 |
| 20260901082652 | 77 | 315 | 0.0 | 0.9 | 0.00 | 0.00 | 0.00 | 51 | 1016.7 |
| 20260901082147 | 77 | 21 | 0.0 | 1.7 | 0.00 | 0.00 | 0.00 | 51 | 1016.8 |
| 20260901081643 | 78 | 323 | 0.9 | 0.9 | 0.00 | 0.00 | 0.00 | 50 | 1016.8 |
| 20260901081142 | 78 | 344 | 0.0 | 2.6 | 0.00 | 0.00 | 0.00 | 50 | 1016.8 |
| 20260901080637 | 78 | 218 | 0.0 | 1.7 | 0.00 | 0.00 | 0.00 | 49 | 1016.7 |
| 20260901080136 | 79 | 224 | 0.0 | 1.7 | 0.00 | 0.00 | 0.00 | 49 | 1016.8 |
| 20260901075631 | 79 | 247 | 0.0 | 4.3 | 0.00 | 0.00 | 0.00 | 48 | 1017.0 |
| 20260901075131 | 79 | 253 | 0.9 | 1.7 | 0.00 | 0.00 | 0.00 | 48 | 1016.6 |
| 20260901074630 | 80 | 307 | 0.0 | 1.7 | 0.00 | 0.00 | 0.00 | 48 | 1016.6 |
| 20260901074125 | 80 | 349 | 0.0 | 2.6 | 0.00 | 0.00 | 0.00 | 47 | 1016.6 |
| 20260901073622 | 80 | 254 | 1.7 | 2.6 | 0.00 | 0.00 | 0.00 | 47 | 1016.8 |
| 20260901073117 | 80 | 269 | 0.0 | 3.5 | 0.00 | 0.00 | 0.00 | 47 | 1016.8 |
| 20260901072612 | 80 | 264 | 1.7 | 1.7 | 0.00 | 0.00 | 0.00 | 46 | 1016.7 |
| 20260901072107 | 80 | 288 | 0.9 | 3.5 | 0.00 | 0.00 | 0.00 | 46 | 1016.8 |
| 20260901071607 | 80 | 271 | 1.7 | 2.6 | 0.00 | 0.00 | 0.00 | 46 | 1017.1 |
| 20260901071107 | 80 | 211 | 0.9 | 3.5 | 0.00 | 0.00 | 0.00 | 46 | 1017.1 |
| 20260901070602 | 80 | 234 | 1.7 | 2.6 | 0.00 | 0.00 | 0.00 | 46 | 1017.1 |
| 20260901070057 | 80 | 318 | 0.9 | 1.7 | 0.00 | 0.00 | 0.00 | 46 | 1017.0 |
| 20260901065551 | 80 | 354 | 0.0 | 1.7 | 0.00 | 0.00 | 0.00 | 47 | 1016.8 |
| 20260901065050 | 81 | 293 | 0.0 | 3.5 | 0.00 | 0.00 | 0.00 | 46 | 1017.0 |
| 20260901064548 | 81 | 223 | 1.7 | 1.7 | 0.00 | 0.00 | 0.00 | 46 | 1017.0 |
| 20260901064044 | 81 | 292 | 1.7 | 2.6 | 0.00 | 0.00 | 0.00 | 46 | 1017.1 |
| 20260901063541 | 81 | 166 | 0.0 | 3.5 | 0.00 | 0.00 | 0.00 | 47 | 1017.1 |
| 20260901063037 | 81 | 56 | 0.0 | 2.6 | 0.00 | 0.00 | 0.00 | 47 | 1017.0 |
| 20260901062532 | 80 | 262 | 1.7 | 1.7 | 0.00 | 0.00 | 0.00 | 47 | 1017.1 |
| 20260901062028 | 80 | 258 | 0.0 | 3.5 | 0.00 | 0.00 | 0.00 | 48 | 1017.0 |
| 20260901061524 | 80 | 342 | 0.0 | 1.7 | 0.00 | 0.00 | 0.00 | 48 | 1017.0 |
| 20260901061019 | 80 | 121 | 0.0 | 1.7 | 0.00 | 0.00 | 0.00 | 48 | 1017.0 |
| 20260901060519 | 80 | 13 | 0.0 | 2.6 | 0.00 | 0.00 | 0.00 | 48 | 1017.1 |
| 20260901060014 | 80 | 38 | 0.0 | 1.7 | 0.00 | 0.00 | 0.00 | 48 | 1017.1 |
| 20260901055509 | 81 | 337 | 0.0 | 2.6 | 0.00 | 0.00 | 0.00 | 48 | 1017.1 |
| 20260901055006 | 81 | 333 | 0.0 | 1.7 | 0.00 | 0.00 | 0.00 | 48 | 1016.8 |
| 20260901054503 | 81 | 341 | 0.0 | 1.7 | 0.00 | 0.00 | 0.00 | 47 | 1017.2 |
| 20260901053959 | 81 | 240 | 0.0 | 0.9 | 0.00 | 0.00 | 0.00 | 47 | 1016.8 |
| 20260901053454 | 82 | 330 | 0.0 | 1.7 | 0.00 | 0.00 | 0.00 | 47 | 1017.0 |
| 20260901052949 | 82 | 331 | 0.0 | 1.7 | 0.00 | 0.00 | 0.00 | 46 | 1016.8 |
| 20260901052445 | 82 | 327 | 0.9 | 1.7 | 0.00 | 0.00 | 0.00 | 46 | 1017.2 |
| 20260901051944 | 82 | 353 | 0.0 | 1.7 | 0.00 | 0.00 | 0.00 | 46 | 1016.8 |
| 20260901051440 | 82 | 5 | 1.7 | 1.7 | 0.00 | 0.00 | 0.00 | 45 | 1016.7 |
| 20260901050939 | 83 | 266 | 1.7 | 1.7 | 0.00 | 0.00 | 0.00 | 45 | 1016.7 |
| 20260901050435 | 83 | 35 | 0.0 | 1.7 | 0.00 | 0.00 | 0.00 | 45 | 1016.8 |
| 20260901045934 | 83 | 37 | 0.0 | 1.7 | 0.00 | 0.00 | 0.00 | 45 | 1016.7 |
| 20260901045430 | 83 | 322 | 0.0 | 2.6 | 0.00 | 0.00 | 0.00 | 45 | 1017.0 |
| 20260901044925 | 83 | 334 | 1.7 | 1.7 | 0.00 | 0.00 | 0.00 | 45 | 1016.7 |
| 20260901044421 | 83 | 38 | 1.7 | 1.7 | 0.00 | 0.00 | 0.00 | 44 | 1016.7 |
| 20260901043916 | 84 | 335 | 1.7 | 1.7 | 0.00 | 0.00 | 0.00 | 44 | 1016.7 |
| 20260901043413 | 84 | 75 | 0.9 | 1.7 | 0.00 | 0.00 | 0.00 | 44 | 1016.7 |
| 20260901042912 | 84 | 19 | 0.9 | 1.7 | 0.00 | 0.00 | 0.00 | 44 | 1016.6 |
| 20260901042407 | 84 | 337 | 0.9 | 2.6 | 0.00 | 0.00 | 0.00 | 44 | 1016.7 |
| 20260901041902 | 85 | 317 | 0.0 | 2.6 | 0.00 | 0.00 | 0.00 | 43 | 1016.5 |
| 20260901041357 | 85 | 196 | 0.9 | 3.5 | 0.00 | 0.00 | 0.00 | 43 | 1016.7 |
| 20260901040856 | 85 | 74 | 1.7 | 1.7 | 0.00 | 0.00 | 0.00 | 43 | 1017.0 |
| 20260901040356 | 85 | 0 | 0.9 | 3.5 | 0.00 | 0.00 | 0.00 | 43 | 1016.8 |
| 20260901035855 | 85 | 331 | 1.7 | 1.7 | 0.00 | 0.00 | 0.00 | 43 | 1016.5 |
| 20260901035354 | 85 | 333 | 0.9 | 1.7 | 0.00 | 0.00 | 0.00 | 44 | 1016.6 |
| 20260901034853 | 85 | 45 | 1.7 | 1.7 | 0.00 | 0.00 | 0.00 | 43 | 1016.5 |
| 20260901034348 | 85 | 9 | 0.0 | 1.7 | 0.00 | 0.00 | 0.00 | 43 | 1016.4 |
| 20260901033843 | 85 | 21 | 0.9 | 1.7 | 0.00 | 0.00 | 0.00 | 43 | 1016.1 |
| 20260901033342 | 85 | 80 | 0.0 | 1.7 | 0.00 | 0.00 | 0.00 | 43 | 1016.2 |
| 20260901032841 | 85 | 299 | 0.0 | 1.7 | 0.00 | 0.00 | 0.00 | 44 | 1016.2 |
| 20260901032340 | 85 | 67 | 0.9 | 0.9 | 0.00 | 0.00 | 0.00 | 44 | 1016.1 |
| 20260901031836 | 85 | 0 | 0.0 | 0.9 | 0.00 | 0.00 | 0.00 | 44 | 1015.9 |
| 20260901031331 | 85 | 343 | 0.0 | 0.9 | 0.00 | 0.00 | 0.00 | 44 | 1016.1 |
| 20260901030831 | 85 | 23 | 0.0 | 0.9 | 0.00 | 0.00 | 0.00 | 43 | 1016.1 |
| 20260901030327 | 86 | 12 | 0.9 | 1.7 | 0.00 | 0.00 | 0.00 | 43 | 1015.8 |
| 20260901025825 | 86 | 55 | 0.0 | 0.9 | 0.00 | 0.00 | 0.00 | 43 | 1015.8 |
| 20260901025320 | 86 | 60 | 0.0 | 0.9 | 0.00 | 0.00 | 0.00 | 42 | 1015.9 |
| 20260901024815 | 86 | 15 | 0.0 | 0.9 | 0.00 | 0.00 | 0.00 | 42 | 1015.5 |
| 20260901024314 | 87 | 353 | 0.0 | 1.7 | 0.00 | 0.00 | 0.00 | 42 | 1015.9 |
| 20260901023813 | 87 | 47 | 0.0 | 1.7 | 0.00 | 0.00 | 0.00 | 41 | 1015.7 |
| 20260901023308 | 87 | 30 | 0.0 | 1.7 | 0.00 | 0.00 | 0.00 | 41 | 1015.6 |
| 20260901022803 | 88 | 89 | 0.0 | 1.7 | 0.00 | 0.00 | 0.00 | 41 | 1015.5 |
| 20260901022259 | 88 | 38 | 0.0 | 1.7 | 0.00 | 0.00 | 0.00 | 40 | 1015.2 |
| 20260901021754 | 88 | 37 | 0.0 | 1.7 | 0.00 | 0.00 | 0.00 | 40 | 1015.1 |
| 20260901021250 | 88 | 1 | 0.9 | 1.7 | 0.00 | 0.00 | 0.00 | 40 | 1015.1 |
| 20260901020744 | 88 | 13 | 0.0 | 0.9 | 0.00 | 0.00 | 0.00 | 40 | 1015.0 |
| 20260901020240 | 89 | 21 | 0.0 | 0.9 | 0.00 | 0.00 | 0.00 | 39 | 1014.9 |
| 20260901015734 | 89 | 319 | 0.0 | 1.7 | 0.00 | 0.00 | 0.00 | 39 | 1014.9 |
| 20260901015230 | 89 | 211 | 1.7 | 1.7 | 0.00 | 0.00 | 0.00 | 38 | 1014.8 |
| 20260901014730 | 89 | 6 | 0.9 | 0.9 | 0.00 | 0.00 | 0.00 | 38 | 1014.9 |
| 20260901014226 | 90 | 118 | 0.0 | 1.7 | 0.00 | 0.00 | 0.00 | 38 | 1014.9 |
| 20260901013721 | 90 | 358 | 0.0 | 1.7 | 0.00 | 0.00 | 0.00 | 37 | 1014.8 |
| 20260901013217 | 90 | 47 | 1.7 | 2.6 | 0.00 | 0.00 | 0.00 | 37 | 1014.8 |
| 20260901012712 | 91 | 43 | 0.0 | 1.7 | 0.00 | 0.00 | 0.00 | 36 | 1014.8 |
| 20260901012213 | 91 | 36 | 0.0 | 1.7 | 0.00 | 0.00 | 0.00 | 36 | 1014.3 |
| 20260901011708 | 91 | 326 | 0.0 | 1.7 | 0.00 | 0.00 | 0.00 | 35 | 1014.6 |
| 20260901011208 | 92 | 40 | 0.0 | 1.7 | 0.00 | 0.00 | 0.00 | 35 | 1014.2 |
| 20260901010702 | 92 | 339 | 0.9 | 1.7 | 0.00 | 0.00 | 0.00 | 34 | 1014.5 |
| 20260901010157 | 93 | 352 | 0.0 | 1.7 | 0.00 | 0.00 | 0.00 | 34 | 1014.7 |
| 20260901005656 | 94 | 142 | 0.0 | 1.7 | 0.00 | 0.00 | 0.00 | 32 | 1014.5 |
| 20260901005151 | 94 | 333 | 0.0 | 0.9 | 0.00 | 0.00 | 0.00 | 32 | 1014.6 |
| 20260901004651 | 94 | 50 | 0.0 | 1.7 | 0.00 | 0.00 | 0.00 | 31 | 1014.2 |
| 20260901004146 | 95 | 9 | 0.0 | 1.7 | 0.00 | 0.00 | 0.00 | 31 | 1014.2 |
| 20260901003640 | 96 | 343 | 0.0 | 2.6 | 0.00 | 0.00 | 0.00 | 30 | 1014.1 |
| 20260901003140 | 97 | 335 | 0.9 | 0.9 | 0.00 | 0.00 | 0.00 | 29 | 1014.3 |
| 20260901002639 | 98 | 31 | 0.9 | 1.7 | 0.00 | 0.00 | 0.00 | 28 | 1014.0 |
| 20260901002134 | 98 | 13 | 0.0 | 0.9 | 0.00 | 0.00 | 0.00 | 28 | 1014.2 |
| 20260901001629 | 99 | 55 | 0.0 | 3.5 | 0.00 | 0.00 | 0.00 | 27 | 1014.2 |
| 20260901001124 | 99 | 329 | 0.9 | 3.5 | 0.00 | 0.00 | 0.00 | 27 | 1014.0 |
| 20260901000620 | 100 | 354 | 1.7 | 2.6 | 0.00 | 0.00 | 0.00 | 26 | 1014.2 |
| 20260901000115 | 101 | 6 | 0.0 | 2.6 | 0.00 | 0.00 | 0.00 | 26 | 1014.2 |
| 20260831235609 | 102 | 53 | 0.9 | 2.6 | 0.00 | 0.00 | 0.00 | 25 | 1013.9 |
| 20260831235104 | 103 | 339 | 0.0 | 1.7 | 0.00 | 0.00 | 0.00 | 25 | 1014.1 |
| 20260831234603 | 103 | 341 | 0.9 | 3.5 | 0.00 | 0.00 | 0.00 | 25 | 1014.0 |
| 20260831234059 | 103 | 219 | 0.0 | 2.6 | 0.00 | 0.00 | 0.00 | 24 | 1014.1 |
| 20260831233554 | 103 | 41 | 1.7 | 2.6 | 0.00 | 0.00 | 0.00 | 25 | 1014.0 |
| 20260831233050 | 103 | 38 | 0.0 | 4.3 | 0.00 | 0.00 | 0.00 | 25 | 1014.2 |
| 20260831232545 | 103 | 70 | 2.6 | 4.3 | 0.00 | 0.00 | 0.00 | 24 | 1014.1 |
| 20260831232041 | 103 | 265 | 2.6 | 4.3 | 0.00 | 0.00 | 0.00 | 24 | 1014.0 |
| 20260831231537 | 104 | 183 | 1.7 | 3.5 | 0.00 | 0.00 | 0.00 | 23 | 1014.1 |
| 20260831231033 | 104 | 357 | 0.0 | 2.6 | 0.00 | 0.00 | 0.00 | 24 | 1014.3 |
| 20260831230528 | 105 | 69 | 0.9 | 3.5 | 0.00 | 0.00 | 0.00 | 24 | 1013.9 |
| 20260831230023 | 104 | 282 | 0.0 | 3.5 | 0.00 | 0.00 | 0.00 | 24 | 1013.9 |
| 20260831225518 | 104 | 9 | 1.7 | 3.5 | 0.00 | 0.00 | 0.00 | 24 | 1014.0 |
| 20260831225017 | 105 | 86 | 2.6 | 3.5 | 0.00 | 0.00 | 0.00 | 23 | 1014.3 |
| 20260831224513 | 104 | 163 | 1.7 | 5.2 | 0.00 | 0.00 | 0.00 | 23 | 1014.2 |
| 20260831224008 | 104 | 108 | 2.6 | 3.5 | 0.00 | 0.00 | 0.00 | 23 | 1014.1 |
| 20260831223503 | 104 | 31 | 0.9 | 2.6 | 0.00 | 0.00 | 0.00 | 23 | 1014.1 |
| 20260831223000 | 105 | 305 | 0.9 | 3.5 | 0.00 | 0.00 | 0.00 | 23 | 1014.2 |
| 20260831222455 | 105 | 274 | 1.7 | 3.5 | 0.00 | 0.00 | 0.00 | 23 | 1014.2 |
| 20260831221954 | 105 | 44 | 0.0 | 2.6 | 0.00 | 0.00 | 0.00 | 23 | 1014.5 |
| 20260831221450 | 105 | 43 | 1.7 | 7.0 | 0.00 | 0.00 | 0.00 | 24 | 1014.3 |
| 20260831220946 | 106 | 112 | 0.0 | 3.5 | 0.00 | 0.00 | 0.00 | 23 | 1014.2 |
| 20260831220441 | 107 | 216 | 1.7 | 4.3 | 0.00 | 0.00 | 0.00 | 22 | 1014.5 |
| 20260831215936 | 106 | 13 | 1.7 | 3.5 | 0.00 | 0.00 | 0.00 | 22 | 1014.6 |
| 20260831215432 | 106 | 307 | 0.9 | 3.5 | 0.00 | 0.00 | 0.00 | 22 | 1014.3 |
| 20260831214928 | 105 | 336 | 0.9 | 5.2 | 0.00 | 0.00 | 0.00 | 23 | 1014.3 |
| 20260831214425 | 105 | 180 | 3.5 | 4.3 | 0.00 | 0.00 | 0.00 | 22 | 1014.7 |
| 20260831213921 | 106 | 70 | 1.7 | 3.5 | 0.00 | 0.00 | 0.00 | 22 | 1014.5 |
| 20260831213417 | 106 | 108 | 0.9 | 3.5 | 0.00 | 0.00 | 0.00 | 21 | 1014.9 |
| 20260831212917 | 105 | 60 | 1.7 | 5.2 | 0.00 | 0.00 | 0.00 | 21 | 1014.8 |
| 20260831212414 | 106 | 311 | 1.7 | 4.3 | 0.00 | 0.00 | 0.00 | 20 | 1014.9 |
| 20260831211913 | 106 | 228 | 2.6 | 5.2 | 0.00 | 0.00 | 0.00 | 19 | 1015.1 |
| 20260831211408 | 106 | 234 | 0.9 | 5.2 | 0.00 | 0.00 | 0.00 | 20 | 1015.1 |
| 20260831210908 | 106 | 307 | 0.0 | 3.5 | 0.00 | 0.00 | 0.00 | 21 | 1014.9 |
| 20260831210403 | 106 | 300 | 3.5 | 3.5 | 0.00 | 0.00 | 0.00 | 22 | 1015.0 |
| 20260831205859 | 105 | 59 | 0.9 | 7.0 | 0.00 | 0.00 | 0.00 | 22 | 1015.0 |
| 20260831205355 | 105 | 294 | 0.9 | 7.0 | 0.00 | 0.00 | 0.00 | 22 | 1015.0 |
| 20260831204855 | 105 | 264 | 2.6 | 5.2 | 0.00 | 0.00 | 0.00 | 22 | 1015.3 |
| 20260831204354 | 105 | 193 | 3.5 | 5.2 | 0.00 | 0.00 | 0.00 | 22 | 1015.2 |
| 20260831203853 | 105 | 8 | 1.7 | 7.0 | 0.00 | 0.00 | 0.00 | 22 | 1015.2 |
| 20260831203348 | 105 | 227 | 0.0 | 7.8 | 0.00 | 0.00 | 0.00 | 22 | 1015.2 |
| 20260831202846 | 106 | 74 | 2.6 | 3.5 | 0.00 | 0.00 | 0.00 | 22 | 1015.4 |
| 20260831202342 | 105 | 255 | 2.6 | 4.3 | 0.00 | 0.00 | 0.00 | 22 | 1015.4 |
| 20260831201841 | 105 | 223 | 4.3 | 9.6 | 0.00 | 0.00 | 0.00 | 22 | 1015.4 |
| 20260831201340 | 105 | 60 | 1.7 | 2.6 | 0.00 | 0.00 | 0.00 | 22 | 1015.4 |
| 20260831200836 | 105 | 239 | 1.7 | 7.8 | 0.00 | 0.00 | 0.00 | 23 | 1015.5 |
| 20260831200331 | 106 | 255 | 1.7 | 4.3 | 0.00 | 0.00 | 0.00 | 22 | 1015.3 |
| 20260831195826 | 106 | 155 | 1.7 | 9.6 | 0.00 | 0.00 | 0.00 | 23 | 1015.6 |
| 20260831195322 | 106 | 320 | 1.7 | 2.6 | 0.00 | 0.00 | 0.00 | 23 | 1015.6 |
| 20260831194818 | 106 | 64 | 0.9 | 3.5 | 0.00 | 0.00 | 0.00 | 23 | 1015.6 |
| 20260831194313 | 104 | 19 | 0.0 | 7.8 | 0.00 | 0.00 | 0.00 | 25 | 1015.5 |
| 20260831193811 | 105 | 223 | 2.6 | 5.2 | 0.00 | 0.00 | 0.00 | 24 | 1015.5 |
| 20260831193307 | 105 | 335 | 1.7 | 6.1 | 0.00 | 0.00 | 0.00 | 25 | 1015.5 |
| 20260831192802 | 105 | 211 | 0.0 | 5.2 | 0.00 | 0.00 | 0.00 | 25 | 1015.8 |
| 20260831192257 | 103 | 146 | 0.9 | 7.8 | 0.00 | 0.00 | 0.00 | 26 | 1015.7 |
| 20260831191753 | 104 | 138 | 4.3 | 7.8 | 0.00 | 0.00 | 0.00 | 25 | 1015.8 |
| 20260831191249 | 104 | 10 | 1.7 | 5.2 | 0.00 | 0.00 | 0.00 | 26 | 1015.6 |
| 20260831190745 | 104 | 218 | 3.5 | 5.2 | 0.00 | 0.00 | 0.00 | 26 | 1015.7 |
| 20260831190244 | 103 | 182 | 0.0 | 6.1 | 0.00 | 0.00 | 0.00 | 26 | 1015.8 |
| 20260831185744 | 104 | 329 | 1.7 | 8.7 | 0.00 | 0.00 | 0.00 | 25 | 1015.7 |
| 20260831185240 | 105 | 327 | 0.9 | 8.7 | 0.00 | 0.00 | 0.00 | 26 | 1015.6 |
| 20260831184739 | 103 | 71 | 0.9 | 5.2 | 0.00 | 0.00 | 0.00 | 28 | 1016.1 |
| 20260831184235 | 103 | 296 | 0.9 | 7.8 | 0.00 | 0.00 | 0.00 | 27 | 1016.0 |
| 20260831183730 | 103 | 177 | 2.6 | 9.6 | 0.00 | 0.00 | 0.00 | 26 | 1015.9 |
| 20260831183229 | 103 | 214 | 1.7 | 5.2 | 0.00 | 0.00 | 0.00 | 27 | 1016.1 |
| 20260831182728 | 103 | 88 | 1.7 | 3.5 | 0.00 | 0.00 | 0.00 | 28 | 1016.0 |
| 20260831182224 | 101 | 198 | 5.2 | 6.1 | 0.00 | 0.00 | 0.00 | 28 | 1016.2 |
| 20260831181724 | 101 | 256 | 5.2 | 7.8 | 0.00 | 0.00 | 0.00 | 29 | 1016.1 |
| 20260831181219 | 101 | 228 | 3.5 | 9.6 | 0.00 | 0.00 | 0.00 | 29 | 1016.1 |
| 20260831180714 | 102 | 190 | 2.6 | 5.2 | 0.00 | 0.00 | 0.00 | 28 | 1016.2 |
| 20260831180209 | 101 | 213 | 6.1 | 10.4 | 0.00 | 0.00 | 0.00 | 28 | 1016.3 |
| 20260831175708 | 101 | 212 | 7.0 | 9.6 | 0.00 | 0.00 | 0.00 | 28 | 1016.4 |
| 20260831175205 | 100 | 172 | 3.5 | 11.3 | 0.00 | 0.00 | 0.00 | 30 | 1016.4 |
| 20260831174705 | 100 | 81 | 1.7 | 13.0 | 0.00 | 0.00 | 0.00 | 30 | 1016.5 |
| 20260831174200 | 101 | 229 | 3.5 | 9.6 | 0.00 | 0.00 | 0.00 | 30 | 1016.6 |
| 20260831173659 | 100 | 170 | 1.7 | 4.3 | 0.00 | 0.00 | 0.00 | 31 | 1016.5 |